Change the Weather History Date:

Thursday, May 23, 2013

  Actual Average Record
Temperature  
Mean Temperature 60 °F 64 °F  
Max Temperature 70 °F 75 °F 97 °F (1926)
Min Temperature 50 °F 52 °F 38 °F (1947)
Degree Days  
Heating Degree Days 5 4  
Month to date heating degree days 186 149  
Since 1 July heating degree days 6112 6151  
Cooling Degree Days 0 2  
Month to date cooling degree days 55 31  
Year to date cooling degree days 61 42  
Growing Degree Days 10 (Base 50)    
Moisture  
Dew Point 48 °F    
Average Humidity 70    
Maximum Humidity 93    
Minimum Humidity 47    
Precipitation  
Precipitation 0.00 in 0.16 in 2.58 in (2008)
Month to date precipitation 2.24 3.20  
Year to date precipitation 8.84 8.74  
Snow  
Snow 0.00 in 0.00 in T in (1998)
Month to date snowfall 0.7 0.1  
Since 1 July snowfall 35.2 29.1  
Snow Depth 0.00 in    
Sea Level Pressure  
Sea Level Pressure 30.16 in    
Wind  
Wind Speed 12 mph (NE)    
Max Wind Speed 21 mph    
Max Gust Speed 25 mph    
Visibility 10 miles    
Events      
T = Trace of Precipitation, MM = Missing Value Source: NWS Daily Summary

Daily Weather History Graph

Daily Weather History Graph

Search for Another Location

Airport or City:

Trip Planner

Search our weather history database for the weather conditions in past years. The results will help you decide how hot, cold, wet, or windy it might be!

Date:

Astronomy

May. 23, 2013 Rise Set
Actual Time 6:08 AM CDT 8:51 PM CDT
Civil Twilight 5:36 AM CDT 9:24 PM CDT
Nautical Twilight 4:56 AM CDT 10:04 PM CDT
Astronomical Twilight 4:10 AM CDT 10:50 PM CDT
Moon 7:25 PM CDT (5/23) 4:55 AM CDT (5/23)
Length of Visible Light 15h 47m
Length of Day
14h 43m
Waxing Gibbous, 97% of the Moon is Illuminated
May 23
Waxing Gibbous
May 24
Full
May 31
Last Quarter
Jun 8
New
Jun 16
First Quarter

Hourly Weather History & Observations

Time (CDT) Temp. Dew Point Humidity Pressure Visibility Wind Dir Wind Speed Gust Speed Precip Events Conditions
12:53 AM 52.0 °F 46.9 °F 83% 30.07 in 10.0 mi NNW 10.4 mph - N/A   Mostly Cloudy
1:53 AM 53.1 °F 48.0 °F 83% 30.08 in 10.0 mi NNW 12.7 mph - N/A   Overcast
2:25 AM 53.6 °F 48.2 °F 82% 30.09 in 10.0 mi NNW 9.2 mph - N/A   Overcast
2:53 AM 52.0 °F 48.0 °F 86% 30.08 in 10.0 mi NNW 12.7 mph - N/A   Overcast
3:53 AM 53.1 °F 48.0 °F 83% 30.09 in 10.0 mi North 16.1 mph - N/A   Overcast
4:44 AM 50.0 °F 46.4 °F 87% 30.11 in 10.0 mi North 8.1 mph - N/A   Scattered Clouds
4:53 AM 50.0 °F 48.0 °F 93% 30.11 in 10.0 mi North 6.9 mph - N/A   Scattered Clouds
5:00 AM 51.8 °F 48.2 °F 88% 30.10 in 10.0 mi North 9.2 mph - N/A   Mostly Cloudy
5:45 AM 50.0 °F 46.4 °F 87% 30.12 in 10.0 mi North 6.9 mph - N/A   Mostly Cloudy
5:53 AM 51.1 °F 46.9 °F 86% 30.13 in 10.0 mi NNW 6.9 mph - N/A   Mostly Cloudy
6:53 AM 52.0 °F 48.0 °F 86% 30.15 in 10.0 mi North 9.2 mph - N/A   Overcast
7:13 AM 53.6 °F 48.2 °F 82% 30.17 in 10.0 mi NNE 8.1 mph - N/A   Overcast
7:53 AM 52.0 °F 48.0 °F 86% 30.19 in 10.0 mi NNE 12.7 mph - N/A   Overcast
8:53 AM 51.1 °F 46.9 °F 86% 30.22 in 10.0 mi NNE 13.8 mph - N/A   Overcast
9:53 AM 52.0 °F 46.9 °F 83% 30.22 in 10.0 mi NE 13.8 mph - N/A   Overcast
10:53 AM 52.0 °F 48.0 °F 86% 30.22 in 10.0 mi ENE 13.8 mph - N/A   Overcast
11:23 AM 53.6 °F 48.2 °F 82% 30.20 in 10.0 mi ENE 13.8 mph - N/A   Overcast
11:53 AM 55.9 °F 48.9 °F 77% 30.19 in 10.0 mi ENE 17.3 mph - N/A   Overcast
12:17 PM 57.2 °F 48.2 °F 72% 30.20 in 10.0 mi ENE 15.0 mph - N/A   Overcast
12:53 PM 60.1 °F 50.0 °F 69% 30.21 in 10.0 mi East 8.1 mph - N/A   Partly Cloudy
1:05 PM 62.6 °F 48.2 °F 59% 30.21 in 10.0 mi ESE 11.5 mph - N/A   Scattered Clouds
1:53 PM 66.0 °F 50.0 °F 56% 30.19 in 10.0 mi East 17.3 mph 24.2 mph N/A   Partly Cloudy
2:53 PM 66.9 °F 48.9 °F 52% 30.19 in 10.0 mi East 16.1 mph 25.3 mph N/A   Scattered Clouds
3:53 PM 69.1 °F 48.9 °F 49% 30.18 in 10.0 mi ESE 12.7 mph 24.2 mph N/A   Partly Cloudy
4:53 PM 69.1 °F 48.9 °F 49% 30.18 in 10.0 mi SE 11.5 mph 23.0 mph N/A   Clear
5:53 PM 69.1 °F 48.0 °F 47% 30.17 in 10.0 mi SE 15.0 mph 19.6 mph N/A   Clear
6:53 PM 68.0 °F 48.0 °F 49% 30.17 in 10.0 mi SE 15.0 mph - N/A   Clear
7:53 PM 66.9 °F 48.0 °F 51% 30.16 in 10.0 mi SE 10.4 mph - N/A   Clear
8:53 PM 64.0 °F 48.0 °F 56% 30.17 in 10.0 mi SE 8.1 mph - N/A   Clear
9:53 PM 60.1 °F 48.9 °F 67% 30.18 in 10.0 mi ESE 5.8 mph - N/A   Clear
10:53 PM 59.0 °F 48.9 °F 69% 30.22 in 10.0 mi SSE 8.1 mph - N/A   Clear
11:53 PM 57.0 °F 48.9 °F 74% 30.21 in 10.0 mi SSE 8.1 mph - N/A   Clear